This demonstration page uses our WeatherBlox Daily Observations layout. Learn more.

41.86663, -103.66717

Hourly Observations for December 7, 2019

Temp ( °F °C ) Dew Point ( °F °C ) Humidity (%) Winds ( mph kmh ) Pressure ( in mb ) Visibility ( mi km ) Precip ( " mm )
12:53 am 00:53 Clear 25 -3.9 23 -5 92 92 ENE 5 7 30.18 1022 10 16.09344 0 0
1:53 am 01:53 Clear 25 -3.9 23 -5 92 92 ENE 6 9 30.15 1021 10 16.09344 0 0
2:53 am 02:53 Clear 25 -3.9 23 -5 92 92 Calm 30.12 1020 10 16.09344 0 0
3:53 am 03:53 Clear 22 -5.6 20 -6.7 92 92 Calm 30.09 1019 10 16.09344 0 0
4:53 am 04:53 Clear 22 -5.6 20 -6.7 92 92 Calm 30.09 1019 10 16.09344 0 0
5:53 am 05:53 Clear 22 -5.6 20 -6.7 92 92 NNE 5 7 30.06 1018 10 16.09344 0 0
6:53 am 06:53 Clear 23 -5 20 -6.7 88 88 NNE 5 7 30.06 1018 10 16.09344 0 0
7:53 am 07:53 Sunny 25 -3.9 22 -5.6 88 88 NNE 3 6 30.06 1018 10 16.09344 0 0
8:53 am 08:53 Sunny 30 -1.1 28 -2.2 92 92 SW 5 7 30.03 1017 10 16.09344 0 0
9:53 am 09:53 Sunny 37 2.8 30 -1.1 76 76 WNW 5 7 30 1016 10 16.09344 0 0
10:53 am 10:53 Sunny 43 6.1 32 0 65 65 W 3 6 29.97 1015 10 16.09344 0 0
11:53 am 11:53 Sunny 49 9.4 31 -0.6 50 50 NNW 6 9 29.91 1013 10 16.09344 0 0
12:53 pm 12:53 Sunny 51 10.6 31 -0.6 46 46 W 8 13 29.88 1012 10 16.09344 0 0
1:53 pm 13:53 Sunny 52 11.1 28 -2.2 40 40 W 18 30 29.85 1011 10 16.09344 0 0
2:53 pm 14:53 Sunny 52 11.1 27 -2.8 38 38 W 26 43 29.83 1010 10 16.09344 0 0
3:53 pm 15:53 Sunny 50 10 28 -2.2 43 43 W 20 31 29.85 1011 10 16.09344 0 0
4:53 pm 16:53 Clear 49 9.4 29 -1.7 46 46 W 21 33 29.88 1012 10 16.09344 0 0
5:53 pm 17:53 Clear 47 8.3 30 -1.1 52 52 WNW 20 31 29.88 1012 10 16.09344 0 0
6:53 pm 18:53 Clear 47 8.3 30 -1.1 52 52 WNW 16 26 29.91 1013 10 16.09344 0 0
7:53 pm 19:53 Clear 45 7.2 30 -1.1 56 56 WNW 13 20 29.91 1013 10 16.09344 0 0
8:53 pm 20:53 Clear 40 4.4 30 -1.1 68 68 NW 9 15 29.91 1013 10 16.09344 0 0
9:53 pm 21:53 Clear 39 3.9 29 -1.7 67 67 Calm 29.88 1012 10 16.09344 0 0
10:53 pm 22:53 Clear 35 1.7 28 -2.2 76 76 E 3 6 29.88 1012 10 16.09344 0 0
11:53 pm 23:53 Clear 35 1.7 29 -1.7 78 78 N 6 9 29.85 1011 10 16.09344 0 0

Powered by AerisWeather